Home > Weather > Montreux > Past weeks

Flag for Switzerland Weather for the Past 2 Weeks in Montreux, Vaud, Switzerland

Now
36 °F

Chilly.


Feels Like: 36 °F
Forecast: 27 / 44 °F
Wind: 1 mph from South

Location: Aigle

Current Time: Feb 5, 2016 at 11:47:06 PM

Latest Report: Feb 5, 2016 at 9:00 PM


Visibility: N/A

Pressure: 30.33 "Hg

Humidity: 97%

Dew point: 35 °F

Location of MontreuxLocation

Historic Weather in Montreux — Graph

°F

Montreux Temperature Yesterday

Maximum temperature yesterday: 42 °F (at 12:00 PM)
Minimum temperature yesterday: 35 °F (at 7:00 AM)
Average temperature yesterday: 39 °F

High & Low Weather Summary for the Past Weeks

 TemperatureHumidityPressure
High57 °F (Feb 1, 2:00 PM)100% (Feb 5, 9:00 AM)30.67 "Hg (Feb 5, 9:00 AM)
Low28 °F (Jan 22, 6:00 AM)44% (Jan 30, 7:00 PM)30.10 "Hg (Jan 31, 6:00 AM)
Average42 °F80%30.41 "Hg
* Reported Jan 21 9:00 PM — Feb 5 9:00 PM, Montreux, Weather by CustomWeather, © 2016

Note: Actual official high and low records may vary slightly from our data, if they occured in-between our weather recording intervals... More about our weather records

Advertising

Montreux Weather History for the Previous 24 Hours

 ConditionsComfort  
Time TempWeatherWind HumidityBarometerVisibility
9:00 PM
Fri, Feb 5
36 °FChilly.1 mph97%30.33 "HgN/A
8:00 PM36 °FChilly.1 mph97%30.34 "HgN/A
7:00 PM40 °FFog.2 mph92%30.34 "Hg4 mi
6:00 PM41 °FQuite cool.1 mph93%30.33 "HgN/A
5:00 PM42 °FQuite cool.1 mph92%30.34 "HgN/A
4:00 PM44 °FScattered clouds.2 mph87%30.36 "Hg12 mi
3:00 PM44 °FQuite cool.5 mph89%30.38 "HgN/A
2:00 PM44 °FQuite cool.9 mph87%30.39 "HgN/A
1:00 PM44 °FScattered clouds.No wind87%30.40 "Hg9 mi
12:00 PM42 °FQuite cool.2 mph89%30.44 "HgN/A
11:00 AM40 °FChilly.1 mph92%30.46 "HgN/A
10:00 AM40 °FFog.5 mph93%30.46 "Hg1 mi
9:00 AM34 °FChilly.1 mph100%30.49 "HgN/A
8:00 AM35 °FChilly.1 mph97%30.48 "HgN/A
7:00 AM38 °FPassing clouds.3 mph96%30.47 "Hg10 mi
11:00 PM
Thu, Feb 4
38 °FChilly.No wind96%30.52 "HgN/A
Weather by CustomWeather, © 2016

See weather overviewHow to use our weather pages